Location: Dana
(41.8364°N, 106.7042°W)
Time: 14:51:24
(UTC+00:00)

Injun/Solrad 3 - Pass Details

Date: 13 May 2026
Orbit: 867 x 989 km, 66.8° (Epoch: 7 June)

Event Time Altitude Azimuth Distance (km) Brightness Sun altitude
Rises 08:40:20 0° 325° (NW) 3,687 11.4 -25.7°
Reaches altitude 10° 08:42:57 10° 321° (NW) 2,744 10.6 -25.5°
Maximum altitude 08:49:08 51° 247° (WSW) 1,224 8.2 -24.9°
Enters shadow 08:49:18 51° 242° (WSW) 1,225 8.1 -24.9°
Drops below altitude 10° 08:55:19 10° 173° (S) 2,733 - -24.4°
Sets 08:57:56 0° 169° (SSE) 3,670 - -24.2°
